Location: Mountain View
(37.3861°N, 122.0839°W)
Time: 09:43:25
(UTC-07:00)

Tiangong - Visible Passes

Search period start: 25 September 2021 00:00
Search period end: 05 October 2021 00:00
Orbit: 382 x 385 km, 41.5° (Epoch: 25 September)

Date Brightness Start Highest point End Pass type
(mag) Time Alt. Az. Time Alt. Az. Time Alt. Az.
25 Sep 2.8 05:37:47 19° S 05:39:05 26° SSE 05:41:47 10° E visible
26 Sep 4.4 04:41:00 11° ESE 04:41:00 11° ESE 04:41:12 10° ESE visible
26 Sep 1.1 06:13:13 14° WSW 06:15:49 83° SSE 06:19:00 10° ENE visible
27 Sep 2.0 05:16:22 43° SE 05:16:22 43° SE 05:19:00 10° ENE visible
28 Sep 1.2 05:51:38 34° W 05:52:48 63° NNW 05:55:57 10° ENE visible
29 Sep 3.5 04:54:39 23° ENE 04:54:39 23° ENE 04:56:02 10° ENE visible
29 Sep 2.0 06:26:52 10° WNW 06:29:52 38° N 06:32:51 10° ENE visible
30 Sep 1.7 05:29:50 46° N 05:29:50 46° N 05:32:53 10° ENE visible
01 Oct 4.7 04:32:48 11° ENE 04:32:48 11° ENE 04:32:58 10° ENE visible
01 Oct 2.1 06:05:00 18° WNW 06:06:55 36° N 06:09:53 10° ENE visible
02 Oct 3.0 05:07:57 28° NE 05:07:57 28° NE 05:09:51 10° ENE visible
03 Oct 2.0 05:43:07 32° NNW 05:43:57 39° N 05:46:57 10° ENE visible
04 Oct 4.2 04:46:07 15° ENE 04:46:07 15° ENE 04:46:50 10° ENE visible
04 Oct 1.2 06:18:20 14° WNW 06:20:57 69° NNE 06:24:06 10° ESE visible
